Regional Weather Roundup
Issued by NWS

Home | Current Version | Previous Version | Text Only | Print | Product List | Glossary Off
Versions: 1 2 3 4 5 6 7 8 9 10 11 12 13 14 15 16 17 18 19 20 21 22 23 24 25 26 27 28 29 30 31 32 33 34 35 36 37 38 39 40 41 42 43 44 45 46 47 48 49 50

000
ASUS45 KSLC 270310
RWRUT

UTAH REGIONAL WEATHER ROUNDUP
NATIONAL WEATHER SERVICE SALT LAKE CITY UT
900 PM MDT WED JUL 26 2017

UTZ001>011-023>025-270400-

NORTHERN UTAH

CITY           SKY/WX    TMP DP  RH WIND       PRES   REMARKS
BRIGHAM CITY   MOCLDY    71  51  49 NW18      30.13F
HILL AFB       MOCLDY    80  54  41 N6        30.15S
LOGAN          MOCLDY    73  52  47 NE18G28   30.19R
OGDEN          MOCLDY    81  53  37 N8        30.11S
SALT LAKE CITY CLOUDY    82  61  48 N9        30.09S
TOOELE VALLEY  CLOUDY    81  61  50 W20       30.14R
WENDOVER       MOCLDY    71  58  63 W6        30.15F
HEBER CITY     PTCLDY    72  55  56 CALM      30.19R
WEST JORDAN    MOCLDY    79  65  62 NW7       30.13S

$$

UTZ011>015-024>027-270400-

CENTRAL/NORTHEAST UTAH

CITY           SKY/WX    TMP DP  RH WIND       PRES   REMARKS
PROVO AIRPORT  PTCLDY    79  61  53 VRB5      30.12R
MOAB/CANYONLAN PTCLDY    82  62  50 NW6       30.09R
DELTA          CLOUDY    73  52  46 N21G29    30.17R
PRICE          CLEAR     76  60  57 S3        30.23R
RICHFIELD      CLOUDY    70  57  64 S9G16     30.25R
ROOSEVELT      CLEAR     77  55  47 CALM      30.19S
VERNAL         CLEAR     74  57  55 NW7       30.18R

$$

UTZ013>016-019>022-027-270400-

SOUTHERN UTAH

CITY           SKY/WX    TMP DP  RH WIND       PRES   REMARKS
BRYCE CANYON   CLEAR     63  55  75 W7        30.38S
CEDAR CITY     MOCLDY    67  61  81 E8        30.25R
MILFORD        MOCLDY    80  50  34 MISG      30.17R
ST GEORGE      PTCLDY    90  62  39 W6        30.02R HX  90
HANKSVILLE     CLEAR     82  57  42 CALM      30.12R
KANAB          CLEAR     79  57  47 W3        30.21R
BLANDING       CLEAR     71  55  56 N7        30.28R

$$

REGIONAL REPORTS     COLORADO/ARIZONA

CITY           SKY/WX    TMP DP  RH WIND       PRES   REMARKS
CRAIG, CO      CLEAR     66  58  75 CALM      30.26S
GRAND JUNCTION CLOUDY    81  57  43 NW8       30.11S
RIFLE, CO      PTCLDY    79  57  46 N5        30.18R
MONTROSE, CO   CLOUDY    77  60  55 NW3       30.21R
CORTEZ, CO     CLEAR     77  57  50 N8        30.20R
COLORADO CITY    N/A     81  63  54 W6        30.20R
PAGE, AZ       PTCLDY    88  55  32 N5        30.08S
GRAND CANYON   PTCLDY    71  55  56 CALM      30.31S
KINGMAN, AZ    PTCLDY    88  61  40 N3        30.05S
FLAGSTAFF, AZ  PTCLDY    66  57  72 CALM      30.35S

$$

REGIONAL REPORTS    NEVADA/IDAHO/WYOMING

CITY           SKY/WX    TMP DP  RH WIND       PRES   REMARKS
LAS VEGAS, NV  PTCLDY    97  60  29 E5        29.92R HX  97
ELY, NY          N/A    N/A N/A N/A MISG      30.28F
ELKO, NV       PTCLDY    80  45  28 NE15G21   30.12R
POCATELLO, ID  CLOUDY    72  57  59 SE9       30.14R
BURLEY, ID     MOCLDY    70  50  49 W6        30.14R
FORT BRIDGER,  MOCLDY    69  54  58 SE3       30.34R
EVANSTON, WY   CLEAR     68  51  54 W9        30.32R
ROCK SPRINGS,  CLOUDY    65  57  75 S5        30.30R
KEMMERER, WY     N/A     64  50  59 NW10      30.35R

$$



USA.gov is the U.S. government's official web portal to all federal, state and local government web resources and services.